FW8576 Weather Reports


Display with metric or nautical units.
time (UTC)temp
F
wind
direction
speed
MPH
gust
MPH
rain 1hr
in
rain 24hr
in
rain mn
in
humidity
%
barometer
mb
20260510200820 87 236 0.0 11.0 0.00 0.00 0.00 50 1018.7
20260510200318 86 286 4.0 6.0 0.00 0.00 0.00 47 1018.7
20260510195814 85 202 5.0 8.0 0.00 0.00 0.00 47 1018.6
20260510195311 87 185 3.0 6.0 0.00 0.00 0.00 46 1018.8
20260510194811 86 241 6.0 8.0 0.00 0.00 0.00 47 1018.6
20260510194307 86 344 2.0 5.0 0.00 0.00 0.00 48 1018.5
20260510193803 84 237 2.0 5.0 0.00 0.00 0.00 49 1018.4
20260510193258 87 237 2.0 2.0 0.00 0.00 0.00 46 1018.8
20260510192754 87 254 7.0 10.0 0.00 0.00 0.00 45 1018.7
20260510192250 86 180 1.0 4.0 0.00 0.00 0.00 46 1018.8
20260510191746 86 190 0.0 4.0 0.00 0.00 0.00 50 1018.9
20260510191242 85 186 5.0 6.0 0.00 0.00 0.00 47 1019.0
20260510190740 86 225 3.0 5.0 0.00 0.00 0.00 49 1019.0
20260510190237 86 220 5.0 7.0 0.00 0.00 0.00 49 1019.0
20260510185733 86 313 3.0 7.0 0.00 0.00 0.00 50 1019.1
20260510185232 86 243 2.0 7.0 0.00 0.00 0.00 52 1019.0
20260510184727 86 237 2.0 7.0 0.00 0.00 0.00 51 1019.2
20260510184225 85 257 5.0 6.0 0.00 0.00 0.00 50 1019.1
20260510183720 86 293 5.0 8.0 0.00 0.00 0.00 49 1019.1
20260510183215 84 262 4.0 10.0 0.00 0.00 0.00 50 1019.1
20260510182711 83 60 0.0 4.0 0.00 0.00 0.00 49 1019.3
20260510182207 84 200 4.0 6.0 0.00 0.00 0.00 51 1019.5
20260510181704 85 274 2.0 8.0 0.00 0.00 0.00 51 1019.5
20260510181201 84 239 3.0 7.0 0.00 0.00 0.00 52 1019.6
20260510180657 84 250 5.0 9.0 0.00 0.00 0.00 49 1019.7
20260510180155 84 260 4.0 10.0 0.00 0.00 0.00 50 1019.6
20260510175650 84 281 3.0 9.0 0.00 0.00 0.00 51 1019.6
20260510175147 84 249 1.0 6.0 0.00 0.00 0.00 50 1019.8
20260510174644 84 234 1.0 3.0 0.00 0.00 0.00 52 1019.5
20260510174142 84 220 3.0 7.0 0.00 0.00 0.00 53 1020.0
20260510173637 81 234 5.0 6.0 0.00 0.00 0.00 53 1020.0
20260510173134 83 255 1.0 4.0 0.00 0.00 0.00 51 1019.9
20260510172629 83 0 1.0 6.0 0.00 0.00 0.00 51 1019.9
20260510172126 83 165 0.0 3.0 0.00 0.00 0.00 55 1020.2
20260510171622 82 23 0.0 7.0 0.00 0.00 0.00 56 1020.1
20260510171120 83 190 2.0 4.0 0.00 0.00 0.00 53 1019.9
20260510170616 82 270 0.0 4.0 0.00 0.00 0.00 55 1020.2
20260510170113 82 180 0.0 5.0 0.00 0.00 0.00 57 1020.1
20260510165608 82 199 3.0 8.0 0.00 0.00 0.00 54 1020.1
20260510165104 83 151 1.0 5.0 0.00 0.00 0.00 56 1020.2
20260510164602 82 114 3.0 3.0 0.00 0.00 0.00 55 1020.3
20260510164058 81 197 5.0 6.0 0.00 0.00 0.00 58 1020.3
20260510163554 80 323 3.0 5.0 0.00 0.00 0.00 57 1020.4
20260510163050 80 290 3.0 5.0 0.00 0.00 0.00 57 1020.5
20260510162545 81 245 5.0 8.0 0.00 0.00 0.00 57 1020.4
20260510162042 82 353 0.0 4.0 0.00 0.00 0.00 58 1020.4
20260510161538 81 337 1.0 5.0 0.00 0.00 0.00 56 1020.5
20260510161035 81 267 3.0 7.0 0.00 0.00 0.00 59 1020.4
20260510160532 80 90 0.0 5.0 0.00 0.00 0.00 62 1020.5
20260510160031 81 113 2.0 2.0 0.00 0.00 0.00 59 1020.6
20260510155528 81 337 0.0 5.0 0.00 0.00 0.00 59 1020.9
20260510155025 82 292 4.0 4.0 0.00 0.00 0.00 57 1020.8
20260510154520 80 98 1.0 2.0 0.00 0.00 0.00 61 1020.9
20260510154020 81 42 3.0 3.0 0.00 0.00 0.00 57 1020.8
20260510153516 81 312 2.0 5.0 0.00 0.00 0.00 59 1020.9
20260510153013 80 332 3.0 6.0 0.00 0.00 0.00 61 1020.5
20260510152510 79 166 0.0 3.0 0.00 0.00 0.00 66 1020.6
20260510152006 79 270 1.0 2.0 0.00 0.00 0.00 64 1020.8
20260510151503 79 90 2.0 4.0 0.00 0.00 0.00 66 1020.9
20260510151001 77 209 2.0 5.0 0.00 0.00 0.00 67 1020.9
20260510150455 79 261 1.0 3.0 0.00 0.00 0.00 66 1020.6
20260510145952 78 154 5.0 5.0 0.00 0.00 0.00 67 1020.6
20260510145448 79 82 1.0 3.0 0.00 0.00 0.00 68 1020.4
20260510144945 77 172 0.0 3.0 0.00 0.00 0.00 70 1020.4
20260510144442 77 282 3.0 5.0 0.00 0.00 0.00 70 1020.6
20260510143937 76 66 1.0 5.0 0.00 0.00 0.00 74 1020.5
20260510143433 79 311 0.0 2.0 0.00 0.00 0.00 70 1020.4
20260510142930 76 348 0.0 2.0 0.00 0.00 0.00 73 1020.5
20260510142427 75 279 0.0 3.0 0.00 0.00 0.00 74 1020.5
20260510141923 76 329 3.0 4.0 0.00 0.00 0.00 72 1020.4
20260510141420 75 95 2.0 3.0 0.00 0.00 0.00 74 1020.4
20260510140918 75 103 2.0 4.0 0.00 0.00 0.00 73 1020.3
20260510140414 75 180 2.0 3.0 0.00 0.00 0.00 77 1020.5
20260510135913 75 299 0.0 3.0 0.00 0.00 0.00 77 1020.3
20260510135409 75 71 1.0 4.0 0.00 0.00 0.00 75 1020.3
20260510134907 74 57 2.0 2.0 0.00 0.00 0.00 76 1020.3
20260510134403 74 346 0.0 4.0 0.00 0.00 0.00 79 1020.3
20260510133859 74 256 3.0 3.0 0.00 0.00 0.00 79 1020.3
20260510133356 74 286 1.0 3.0 0.00 0.00 0.00 78 1020.3
20260510132851 73 306 0.0 3.0 0.00 0.00 0.00 82 1020.4
20260510132349 71 90 0.0 2.0 0.00 0.00 0.00 84 1020.2
20260510131846 70 233 2.0 5.0 0.00 0.00 0.00 86 1020.3
20260510131344 70 248 4.0 4.0 0.00 0.00 0.00 85 1020.3
20260510130840 70 294 1.0 3.0 0.00 0.00 0.00 87 1020.4
20260510130337 69 270 2.0 4.0 0.00 0.00 0.00 88 1020.2
20260510125833 69 288 4.0 5.0 0.00 0.00 0.00 89 1020.4
20260510125330 69 254 0.0 2.0 0.00 0.00 0.00 91 1020.3
20260510124827 68 209 1.0 4.0 0.00 0.00 0.00 92 1020.5
20260510124323 67 264 2.0 5.0 0.00 0.00 0.00 94 1020.4
20260510123820 66 241 3.0 4.0 0.00 0.00 0.00 95 1020.1
20260510123315 65 307 0.0 5.0 0.00 0.00 0.00 96 1020.3
20260510122812 66 200 3.0 3.0 0.00 0.00 0.00 98 1020.1
20260510122308 65 243 0.0 4.0 0.00 0.00 0.00 98 1020.4
20260510121804 65 213 0.0 4.0 0.00 0.00 0.00 99 1020.3
20260510121302 65 235 3.0 4.0 0.00 0.00 0.00 99 1020.3
20260510120759 64 180 0.0 5.0 0.00 0.00 0.00 99 1020.3
20260510120255 64 231 0.0 3.0 0.00 0.00 0.00 99 1020.2
20260510115751 64 278 1.0 5.0 0.00 0.00 0.00 99 1019.9
20260510115249 64 212 2.0 3.0 0.00 0.00 0.00 99 1019.9
20260510114744 65 234 0.0 0.0 0.00 0.00 0.00 99 1019.8
20260510114242 64 234 0.0 0.0 0.00 0.00 0.00 99 1019.8
20260510113737 64 172 0.0 0.0 0.00 0.00 0.00 99 1019.9
20260510113234 62 173 0.0 2.0 0.00 0.00 0.00 99 1019.7
20260510112730 62 180 0.0 1.0 0.00 0.00 0.00 99 1019.7
20260510112227 62 172 0.0 0.0 0.00 0.00 0.00 99 1019.5
20260510111723 62 270 0.0 0.0 0.00 0.00 0.00 99 1019.7
20260510111220 61 270 0.0 0.0 0.00 0.00 0.00 99 1019.5
20260510110720 61 180 0.0 2.0 0.00 0.00 0.00 99 1019.5
20260510110218 61 229 0.0 2.0 0.00 0.00 0.00 99 1019.0
20260510105718 61 180 0.0 1.0 0.00 0.00 0.00 99 1019.2
20260510105218 61 172 0.0 2.0 0.00 0.00 0.00 99 1019.2
20260510104715 62 180 1.0 3.0 0.00 0.00 0.00 99 1019.0
20260510104212 61 180 0.0 2.0 0.00 0.00 0.00 99 1018.9
20260510103708 61 258 0.0 2.0 0.00 0.00 0.00 99 1019.2
20260510103206 61 175 0.0 2.0 0.00 0.00 0.00 99 1019.0
20260510102700 62 180 0.0 1.0 0.00 0.00 0.00 99 1018.6
20260510102156 61 157 0.0 0.0 0.00 0.00 0.00 99 1018.6
20260510101654 62 221 0.0 2.0 0.00 0.00 0.00 99 1018.6
20260510101152 61 203 0.0 1.0 0.00 0.00 0.00 99 1018.6
20260510100647 61 135 0.0 0.0 0.00 0.00 0.00 99 1018.2
20260510100145 61 135 0.0 0.0 0.00 0.00 0.00 99 1018.5
20260510095640 61 135 0.0 0.0 0.00 0.00 0.00 99 1018.6
20260510095136 61 135 0.0 0.0 0.00 0.00 0.00 99 1018.4
20260510094629 61 140 0.0 2.0 0.00 0.00 0.00 99 1018.3
20260510094125 62 75 1.0 2.0 0.00 0.00 0.00 99 1018.0
20260510093621 61 74 0.0 0.0 0.00 0.00 0.00 99 1018.2
20260510093119 62 74 0.0 0.0 0.00 0.00 0.00 99 1017.9
20260510092615 62 69 0.0 1.0 0.00 0.00 0.00 99 1018.1
20260510092115 62 180 0.0 0.0 0.00 0.00 0.00 99 1017.8
20260510091612 62 270 0.0 0.0 0.00 0.00 0.00 99 1018.2
20260510091108 62 270 0.0 0.0 0.00 0.00 0.00 99 1018.1
20260510090605 63 270 0.0 0.0 0.00 0.00 0.00 99 1018.1
20260510090101 63 261 0.0 0.0 0.00 0.00 0.00 99 1018.0
20260510085556 63 0 0.0 0.0 0.00 0.00 0.00 99 1018.0
20260510085052 63 255 0.0 1.0 0.00 0.00 0.00 99 1017.9
20260510084548 63 270 0.0 2.0 0.00 0.00 0.00 99 1017.9
20260510084045 63 259 0.0 2.0 0.00 0.00 0.00 99 1017.8
20260510083542 63 180 0.0 0.0 0.00 0.00 0.00 99 1017.9
20260510083038 63 191 0.0 2.0 0.00 0.00 0.00 99 1017.7
20260510082535 63 251 0.0 2.0 0.00 0.00 0.00 99 1017.8
20260510082030 64 218 2.0 2.0 0.00 0.00 0.00 99 1017.9
20260510081526 64 261 0.0 2.0 0.00 0.00 0.00 99 1017.6
20260510081022 64 303 0.0 2.0 0.00 0.00 0.00 99 1017.8
20260510080521 64 266 2.0 2.0 0.00 0.00 0.00 99 1017.5
20260510080018 63 90 0.0 1.0 0.00 0.00 0.00 99 1017.3
20260510075515 64 0 2.0 2.0 0.00 0.00 0.00 99 1017.6
20260510075012 64 0 0.0 1.0 0.00 0.00 0.00 99 1017.4
20260510074510 63 0 1.0 1.0 0.00 0.00 0.00 99 1017.4
20260510074005 63 185 0.0 0.0 0.00 0.00 0.00 99 1017.5
20260510073501 64 185 0.0 2.0 0.00 0.00 0.00 99 1017.1
20260510072958 64 195 0.0 0.0 0.00 0.00 0.00 99 1017.3
20260510072454 64 246 2.0 2.0 0.00 0.00 0.00 99 1017.2
20260510071950 64 195 0.0 0.0 0.00 0.00 0.00 99 1017.3
20260510071446 64 75 0.0 0.0 0.00 0.00 0.00 99 1017.0
20260510070945 64 0 0.0 1.0 0.00 0.00 0.00 99 1017.1
20260510070442 64 287 0.0 2.0 0.00 0.00 0.00 98 1017.1
20260510065937 64 270 1.0 2.0 0.00 0.00 0.00 99 1017.2
20260510065435 64 188 0.0 0.0 0.00 0.00 0.00 99 1017.2
20260510064930 64 225 3.0 4.0 0.00 0.00 0.00 99 1017.2
20260510064428 64 200 1.0 2.0 0.00 0.00 0.00 99 1017.1
20260510063925 64 243 0.0 2.0 0.00 0.00 0.00 99 1017.0
20260510063420 64 240 0.0 2.0 0.00 0.00 0.00 99 1017.3
20260510062919 64 243 0.0 1.0 0.00 0.00 0.00 99 1017.1
20260510062414 64 203 1.0 2.0 0.00 0.00 0.00 99 1017.4
20260510061909 64 249 0.0 1.0 0.00 0.00 0.00 98 1017.5
20260510061406 64 252 2.0 2.0 0.00 0.00 0.00 99 1017.5
20260510060902 64 233 0.0 2.0 0.00 0.00 0.00 98 1017.2
20260510060359 64 213 0.0 3.0 0.00 0.00 0.00 99 1017.3
20260510055855 64 262 0.0 1.0 0.00 0.00 0.00 98 1017.4
20260510055355 64 203 2.0 2.0 0.00 0.00 0.00 98 1017.3
20260510054848 64 188 0.0 2.0 0.00 0.00 0.00 98 1017.2
20260510054344 64 352 0.0 0.0 0.00 0.00 0.00 98 1017.2
20260510053839 64 194 0.0 0.0 0.00 0.00 0.00 98 1017.4
20260510053335 64 200 0.0 1.0 0.00 0.00 0.00 98 1017.3
20260510052832 64 203 0.0 1.0 0.00 0.00 0.00 98 1017.6
20260510052327 64 188 0.0 0.0 0.00 0.00 0.00 98 1017.5
20260510051824 64 188 0.0 0.0 0.00 0.00 0.00 98 1017.4
20260510051321 65 203 0.0 1.0 0.00 0.00 0.00 97 1018.0
20260510050818 65 262 0.0 0.0 0.00 0.00 0.00 97 1017.7
20260510050314 65 243 0.0 1.0 0.00 0.00 0.00 97 1017.6
20260510045811 64 90 0.0 0.0 0.00 0.00 0.00 97 1017.9
20260510045308 65 157 0.0 1.0 0.00 0.00 0.00 97 1017.8
20260510044805 65 98 0.0 0.0 0.00 0.00 0.00 96 1017.9
20260510044302 65 98 0.0 0.0 0.00 0.00 0.00 96 1017.8
20260510043758 65 98 0.0 0.0 0.00 0.00 0.00 96 1017.6
20260510043254 65 157 0.0 0.0 0.00 0.00 0.00 96 1017.5
20260510042752 65 270 0.0 0.0 0.00 0.00 0.00 96 1017.6
20260510042247 66 255 0.0 1.0 0.00 0.00 0.00 96 1017.8
20260510041744 66 261 0.0 2.0 0.00 0.00 0.00 96 1017.6
20260510041242 66 262 1.0 3.0 0.00 0.00 0.00 96 1017.6
20260510040739 66 254 1.0 2.0 0.00 0.00 0.00 96 1017.6
20260510040236 66 294 2.0 2.0 0.00 0.00 0.00 96 1017.6
20260510035731 66 241 2.0 3.0 0.00 0.00 0.00 96 1017.7
20260510035227 66 264 0.0 4.0 0.00 0.00 0.00 96 1017.5
20260510034723 66 180 0.0 2.0 0.00 0.00 0.00 95 1017.4
20260510034221 66 221 2.0 3.0 0.00 0.00 0.00 95 1017.5
20260510033717 66 294 1.0 5.0 0.00 0.00 0.00 95 1017.7
20260510033215 66 300 0.0 3.0 0.00 0.00 0.00 95 1017.7
20260510032711 66 194 0.0 2.0 0.00 0.00 0.00 95 1017.6
20260510032207 66 254 0.0 0.0 0.00 0.00 0.00 95 1017.3
20260510031701 66 209 0.0 1.0 0.00 0.00 0.00 95 1017.5
20260510031158 66 254 0.0 1.0 0.00 0.00 0.00 94 1017.5
20260510030652 67 246 0.0 1.0 0.00 0.00 0.00 94 1017.6
20260510030150 66 243 0.0 3.0 0.00 0.00 0.00 94 1017.4
20260510025647 67 240 1.0 2.0 0.00 0.00 0.00 94 1017.4
20260510025144 67 270 0.0 3.0 0.00 0.00 0.00 93 1017.4
20260510024642 67 270 0.0 0.0 0.00 0.00 0.00 93 1017.3
20260510024138 67 291 1.0 2.0 0.00 0.00 0.00 93 1017.4
20260510023634 67 264 0.0 2.0 0.00 0.00 0.00 93 1017.3
20260510023131 67 254 0.0 2.0 0.00 0.00 0.00 93 1017.3
20260510022631 67 245 2.0 4.0 0.00 0.00 0.00 92 1017.3
20260510022126 67 259 3.0 4.0 0.00 0.00 0.00 93 1017.4
20260510021622 67 227 0.0 3.0 0.00 0.00 0.00 93 1017.1
20260510021120 67 254 1.0 3.0 0.00 0.00 0.00 93 1017.4
20260510020614 67 254 2.0 3.0 0.00 0.00 0.00 93 1017.3
20260510020110 67 261 0.0 2.0 0.00 0.00 0.00 92 1017.5
20260510015606 67 264 0.0 3.0 0.00 0.00 0.00 92 1017.5
20260510015102 67 270 0.0 1.0 0.00 0.00 0.00 92 1017.6
20260510014558 68 246 0.0 2.0 0.00 0.00 0.00 92 1017.2
20260510014056 68 285 0.0 0.0 0.00 0.00 0.00 91 1017.4
20260510013555 68 262 0.0 3.0 0.00 0.00 0.00 91 1017.2
20260510013052 68 180 0.0 2.0 0.00 0.00 0.00 91 1016.9
20260510012545 68 270 0.0 2.0 0.00 0.00 0.00 91 1016.8
20260510012042 68 237 0.0 2.0 0.00 0.00 0.00 90 1016.8
20260510011542 69 250 2.0 3.0 0.00 0.00 0.00 90 1016.7
20260510011038 68 253 2.0 3.0 0.00 0.00 0.00 90 1016.6
20260510010535 69 270 0.0 4.0 0.00 0.00 0.00 90 1016.5
20260510010032 69 215 0.0 2.0 0.00 0.00 0.00 90 1016.4
20260510005527 69 233 2.0 2.0 0.00 0.00 0.00 89 1016.6
20260510005025 69 260 2.0 3.0 0.00 0.00 0.00 89 1016.6
20260510004523 69 235 3.0 4.0 0.00 0.00 0.00 89 1016.6
20260510004021 69 270 0.0 3.0 0.00 0.00 0.00 88 1016.4
20260510003517 70 188 0.0 4.0 0.00 0.00 0.00 88 1016.1
20260510003013 70 262 1.0 2.0 0.00 0.00 0.00 88 1016.1
20260510002508 70 270 0.0 3.0 0.00 0.00 0.00 87 1016.0
20260510002005 70 263 0.0 3.0 0.00 0.00 0.00 87 1016.1
20260510001503 70 234 1.0 2.0 0.00 0.00 0.00 87 1015.9
20260510001001 71 245 2.0 4.0 0.00 0.00 0.00 86 1015.8
20260510000456 71 203 3.0 4.0 0.00 0.00 0.00 86 1016.0
20260509235952 71 270 1.0 3.0 0.00 0.00 0.00 86 1015.9
20260509235449 71 201 2.0 5.0 0.00 0.00 0.00 85 1015.8
20260509234945 71 251 1.0 4.0 0.00 0.00 0.00 85 1015.6
20260509234442 71 249 3.0 3.0 0.00 0.00 0.00 85 1015.6
20260509233941 72 208 3.0 5.0 0.00 0.00 0.00 85 1015.7
20260509233438 72 273 4.0 4.0 0.00 0.00 0.00 84 1015.6
20260509232934 72 243 3.0 7.0 0.00 0.00 0.00 84 1015.4
20260509232432 72 283 1.0 5.0 0.00 0.00 0.00 83 1015.5
20260509231927 72 257 2.0 7.0 0.00 0.00 0.00 83 1015.2
20260509231424 72 243 0.0 4.0 0.00 0.00 0.00 83 1015.3
20260509230922 72 272 5.0 7.0 0.00 0.00 0.00 82 1015.5
20260509230419 73 270 2.0 4.0 0.00 0.00 0.00 82 1015.5
20260509225915 73 231 3.0 7.0 0.00 0.00 0.00 81 1015.3
20260509225411 73 227 7.0 7.0 0.00 0.00 0.00 81 1015.4
20260509224908 73 240 3.0 5.0 0.00 0.00 0.00 81 1015.4
20260509224403 73 236 6.0 8.0 0.00 0.00 0.00 81 1015.2
20260509223901 73 262 5.0 8.0 0.00 0.00 0.00 80 1015.5
20260509223357 73 231 3.0 6.0 0.00 0.00 0.00 80 1015.3
20260509222854 73 228 2.0 7.0 0.00 0.00 0.00 80 1015.3
20260509222349 73 266 3.0 6.0 0.00 0.00 0.00 80 1015.4
20260509221844 73 248 2.0 6.0 0.00 0.00 0.00 80 1015.3
20260509221342 74 278 4.0 5.0 0.00 0.00 0.00 79 1015.4
20260509220837 74 286 3.0 5.0 0.00 0.00 0.00 79 1015.2
20260509220333 74 273 4.0 5.0 0.00 0.00 0.00 78 1014.9
20260509215829 74 266 2.0 5.0 0.00 0.00 0.00 78 1015.3
20260509215326 74 281 2.0 3.0 0.00 0.00 0.00 78 1015.0
20260509214823 74 303 3.0 5.0 0.00 0.00 0.00 78 1015.1
20260509214320 74 248 3.0 6.0 0.00 0.00 0.00 77 1015.3
20260509213817 75 235 3.0 4.0 0.00 0.00 0.00 77 1015.3
20260509213312 75 228 2.0 4.0 0.00 0.00 0.00 78 1015.2
20260509212810 75 254 2.0 6.0 0.00 0.00 0.00 77 1015.1
20260509212308 74 222 3.0 4.0 0.00 0.00 0.00 77 1014.9
20260509211803 74 270 2.0 4.0 0.00 0.00 0.00 77 1014.9
20260509211259 74 279 0.0 5.0 0.00 0.00 0.00 77 1014.9
20260509210756 74 253 5.0 5.0 0.00 0.00 0.00 77 1015.0
20260509210254 74 281 2.0 4.0 0.00 0.00 0.00 78 1015.1
20260509205753 75 283 0.0 4.0 0.00 0.00 0.00 76 1015.0
20260509205248 74 234 1.0 5.0 0.00 0.00 0.00 78 1015.1
20260509204744 75 297 2.0 4.0 0.00 0.00 0.00 77 1015.4
20260509204241 74 205 3.0 4.0 0.00 0.00 0.00 77 1015.2
20260509203737 73 251 3.0 6.0 0.00 0.00 0.00 78 1015.5
20260509203235 74 290 5.0 5.0 0.00 0.00 0.00 78 1015.5
20260509202730 73 345 0.0 5.0 0.00 0.00 0.00 78 1015.3
20260509202227 73 240 3.0 5.0 0.00 0.00 0.00 79 1015.4
20260509201721 73 244 4.0 5.0 0.00 0.00 0.00 79 1015.7